When you browse on this site, cookies collect data to enhance your experience and personalize the content and advertising you see.
Visit our Privacy Policy to learn more. By continuing to use the site, you agree to this use of cookies and data.
  • In Deutschland
  • Länderverzeichnis
  • Für 7 Tage
  • Wassertemperatur
  • Satellitenkarten
  • Wetterkarte
  • Widgets
  • user-avatar
    Anmelden

    Stündliche Wetter Brisbane

    Heute, 22 Mai, Mittwoch

    Zeit Temperatur Niederschläge Wind Luftdruck Luftfeuchtigkeit
    00:00 +19°C° 0 mm 1 m/S 768 mmHg 82%
    01:00 +18°C° 0 mm 1 m/S 768 mmHg 84%
    02:00 +18°C° 0 mm 1 m/S 768 mmHg 85%
    03:00 +17°C° 0 mm 2 m/S 768 mmHg 86%
    04:00 +17°C° 0 mm 2 m/S 768 mmHg 87%
    05:00 +17°C° 0 mm 2 m/S 768 mmHg 86%
    06:00 +17°C° 0 mm 2 m/S 768 mmHg 86%
    07:00 +17°C° 0 mm 2 m/S 768 mmHg 86%
    08:00 +19°C° 0 mm 2 m/S 768 mmHg 77%
    09:00 +21°C° 0 mm 2 m/S 768 mmHg 67%
    10:00 +25°C° 0 mm 2 m/S 768 mmHg 58%
    11:00 +25°C° 0 mm 2 m/S 768 mmHg 55%
    12:00 +26°C° 0 mm 3 m/S 767 mmHg 52%
    13:00 +26°C° 0 mm 3 m/S 767 mmHg 49%
    14:00 +26°C° 0 mm 3 m/S 767 mmHg 53%
    15:00 +25°C° 0 mm 3 m/S 767 mmHg 56%
    16:00 +25°C° 0 mm 3 m/S 767 mmHg 60%
    17:00 +22°C° 0 mm 3 m/S 767 mmHg 66%
    18:00 +21°C° 0 mm 3 m/S 767 mmHg 71%
    19:00 +20°C° 0 mm 3 m/S 768 mmHg 77%
    20:00 +19°C° 0 mm 3 m/S 768 mmHg 78%
    21:00 +19°C° 0 mm 3 m/S 768 mmHg 79%
    22:00 +18°C° 0 mm 2 m/S 768 mmHg 81%
    23:00 +18°C° 0 mm 2 m/S 768 mmHg 82%

    Morgen, 23 Mai, Donnerstag

    Zeit Temperatur Niederschläge Wind Luftdruck Luftfeuchtigkeit
    00:00 +17°C° 0 mm 2 m/S 768 mmHg 83%
    01:00 +17°C° 0 mm 2 m/S 768 mmHg 84%
    02:00 +17°C° 0 mm 2 m/S 767 mmHg 85%
    03:00 +16°C° 0 mm 2 m/S 767 mmHg 86%
    04:00 +16°C° 0 mm 2 m/S 767 mmHg 87%
    05:00 +16°C° 0 mm 2 m/S 767 mmHg 87%
    06:00 +16°C° 0 mm 2 m/S 768 mmHg 87%
    07:00 +16°C° 0 mm 2 m/S 768 mmHg 87%
    08:00 +18°C° 0 mm 3 m/S 768 mmHg 78%
    09:00 +20°C° 0 mm 3 m/S 768 mmHg 69%
    10:00 +24°C° 0 mm 3 m/S 768 mmHg 59%
    11:00 +24°C° 0.1 mm 3 m/S 767 mmHg 58%
    12:00 +25°C° 0.1 mm 4 m/S 767 mmHg 56%
    13:00 +25°C° 0.1 mm 4 m/S 766 mmHg 55%
    14:00 +25°C° 0.1 mm 4 m/S 766 mmHg 59%
    15:00 +23°C° 0.1 mm 4 m/S 766 mmHg 63%
    16:00 +22°C° 0.1 mm 4 m/S 766 mmHg 67%
    17:00 +21°C° 0 mm 3 m/S 766 mmHg 70%
    18:00 +20°C° 0 mm 3 m/S 766 mmHg 74%
    19:00 +19°C° 0 mm 3 m/S 767 mmHg 77%
    20:00 +19°C° 0 mm 2 m/S 767 mmHg 79%
    21:00 +18°C° 0 mm 2 m/S 767 mmHg 80%
    22:00 +18°C° 0 mm 2 m/S 767 mmHg 81%
    23:00 +17°C° 0 mm 2 m/S 767 mmHg 82%

    übermorgen, 24 Mai, Freitag

    Zeit Temperatur Niederschläge Wind Luftdruck Luftfeuchtigkeit
    00:00 +17°C° 0 mm 2 m/S 767 mmHg 83%
    01:00 +17°C° 0 mm 2 m/S 766 mmHg 84%
    02:00 +16°C° 0 mm 2 m/S 766 mmHg 84%
    03:00 +16°C° 0 mm 2 m/S 766 mmHg 85%
    04:00 +16°C° 0 mm 2 m/S 765 mmHg 85%
    05:00 +16°C° 0 mm 2 m/S 766 mmHg 85%
    06:00 +16°C° 0 mm 2 m/S 766 mmHg 85%
    07:00 +15°C° 0 mm 2 m/S 766 mmHg 84%
    08:00 +18°C° 0 mm 2 m/S 766 mmHg 75%
    09:00 +20°C° 0 mm 2 m/S 766 mmHg 66%
    10:00 +23°C° 0 mm 2 m/S 766 mmHg 58%
    11:00 +24°C° 0 mm 3 m/S 765 mmHg 54%
    12:00 +25°C° 0 mm 3 m/S 765 mmHg 51%
    13:00 +26°C° 0 mm 3 m/S 764 mmHg 48%
    14:00 +25°C° 0 mm 3 m/S 764 mmHg 52%
    15:00 +25°C° 0 mm 3 m/S 763 mmHg 57%
    16:00 +24°C° 0 mm 3 m/S 763 mmHg 61%
    17:00 +22°C° 0 mm 3 m/S 764 mmHg 67%
    18:00 +20°C° 0 mm 2 m/S 764 mmHg 74%
    19:00 +19°C° 0 mm 2 m/S 765 mmHg 80%
    20:00 +19°C° 0 mm 2 m/S 765 mmHg 82%
    21:00 +19°C° 0 mm 1 m/S 765 mmHg 83%
    22:00 +19°C° 0 mm 1 m/S 765 mmHg 85%
    23:00 +18°C° 0 mm 1 m/S 765 mmHg 86%

    25 Mai, Samstag

    Zeit Temperatur Niederschläge Wind Luftdruck Luftfeuchtigkeit
    00:00 +18°C° 0 mm 1 m/S 765 mmHg 87%
    01:00 +16°C° 0 mm 2 m/S 764 mmHg 89%
    02:00 +16°C° 0 mm 2 m/S 764 mmHg 89%
    03:00 +16°C° 0 mm 2 m/S 764 mmHg 89%
    04:00 +15°C° 0 mm 2 m/S 764 mmHg 90%
    05:00 +15°C° 0 mm 2 m/S 764 mmHg 89%
    06:00 +15°C° 0 mm 2 m/S 764 mmHg 88%
    07:00 +15°C° 0 mm 2 m/S 764 mmHg 87%
    08:00 +19°C° 0 mm 1 m/S 764 mmHg 77%
    09:00 +21°C° 0 mm 1 m/S 764 mmHg 66%
    10:00 +24°C° 0 mm 1 m/S 764 mmHg 56%
    11:00 +25°C° 0 mm 1 m/S 764 mmHg 51%
    12:00 +26°C° 0 mm 1 m/S 763 mmHg 46%
    13:00 +27°C° 0 mm 1 m/S 762 mmHg 40%
    14:00 +26°C° 0 mm 1 m/S 762 mmHg 43%
    15:00 +26°C° 0 mm 2 m/S 762 mmHg 46%
    16:00 +25°C° 0 mm 2 m/S 762 mmHg 49%
    17:00 +23°C° 0 mm 2 m/S 762 mmHg 58%
    18:00 +21°C° 0 mm 2 m/S 762 mmHg 66%
    19:00 +19°C° 0 mm 2 m/S 763 mmHg 75%
    20:00 +19°C° 0 mm 2 m/S 763 mmHg 78%
    21:00 +19°C° 0 mm 1 m/S 763 mmHg 81%
    22:00 +19°C° 0 mm 1 m/S 763 mmHg 84%
    23:00 +18°C° 0 mm 1 m/S 763 mmHg 86%

    26 Mai, Sonntag

    Zeit Temperatur Niederschläge Wind Luftdruck Luftfeuchtigkeit
    00:00 +18°C° 0 mm 1 m/S 762 mmHg 87%
    01:00 +16°C° 0 mm 2 m/S 762 mmHg 89%
    02:00 +16°C° 0 mm 2 m/S 762 mmHg 88%
    03:00 +16°C° 0 mm 2 m/S 762 mmHg 87%
    04:00 +15°C° 0 mm 1 m/S 762 mmHg 87%
    05:00 +15°C° 0 mm 2 m/S 762 mmHg 85%
    06:00 +15°C° 0 mm 2 m/S 762 mmHg 83%
    07:00 +15°C° 0 mm 2 m/S 763 mmHg 82%
    08:00 +18°C° 0 mm 2 m/S 763 mmHg 71%
    09:00 +20°C° 0 mm 2 m/S 763 mmHg 60%
    10:00 +24°C° 0 mm 2 m/S 762 mmHg 49%
    11:00 +25°C° 0 mm 2 m/S 762 mmHg 43%
    12:00 +27°C° 0 mm 2 m/S 761 mmHg 38%
    13:00 +28°C° 0 mm 2 m/S 760 mmHg 32%
    14:00 +27°C° 0 mm 2 m/S 760 mmHg 37%
    15:00 +26°C° 0 mm 2 m/S 760 mmHg 43%
    16:00 +25°C° 0 mm 3 m/S 759 mmHg 48%
    17:00 +24°C° 0 mm 3 m/S 760 mmHg 53%
    18:00 +21°C° 0 mm 3 m/S 760 mmHg 58%
    19:00 +20°C° 0 mm 3 m/S 761 mmHg 63%
    20:00 +19°C° 0 mm 2 m/S 761 mmHg 61%
    21:00 +19°C° 0 mm 2 m/S 761 mmHg 60%
    22:00 +18°C° 0 mm 2 m/S 761 mmHg 59%
    23:00 +17°C° 0 mm 2 m/S 761 mmHg 57%

    27 Mai, Montag

    Zeit Temperatur Niederschläge Wind Luftdruck Luftfeuchtigkeit
    00:00 +17°C° 0 mm 2 m/S 760 mmHg 55%
    01:00 +17°C° 0 mm 2 m/S 760 mmHg 53%
    02:00 +16°C° 0 mm 2 m/S 760 mmHg 53%
    03:00 +16°C° 0 mm 2 m/S 760 mmHg 54%
    04:00 +16°C° 0 mm 2 m/S 760 mmHg 54%
    05:00 +16°C° 0 mm 3 m/S 761 mmHg 54%
    06:00 +16°C° 0 mm 3 m/S 761 mmHg 53%
    07:00 +16°C° 0 mm 3 m/S 761 mmHg 52%
    08:00 +18°C° 0 mm 3 m/S 762 mmHg 48%
    09:00 +21°C° 0 mm 3 m/S 762 mmHg 43%
    10:00 +24°C° 0 mm 3 m/S 762 mmHg 38%
    11:00 +26°C° 0 mm 2 m/S 761 mmHg 34%
    12:00 +27°C° 0 mm 2 m/S 760 mmHg 31%
    13:00 +28°C° 0 mm 1 m/S 760 mmHg 27%
    14:00 +28°C° 0 mm 2 m/S 760 mmHg 30%
    15:00 +27°C° 0 mm 2 m/S 760 mmHg 32%
    16:00 +26°C° 0 mm 2 m/S 759 mmHg 35%
    17:00 +24°C° 0 mm 2 m/S 760 mmHg 43%
    18:00 +22°C° 0 mm 1 m/S 760 mmHg 51%
    19:00 +19°C° 0 mm 1 m/S 761 mmHg 58%
    20:00 +19°C° 0 mm 1 m/S 761 mmHg 60%
    21:00 +18°C° 0 mm 1 m/S 761 mmHg 61%
    22:00 +18°C° 0 mm 1 m/S 761 mmHg 62%
    23:00 +16°C° 0 mm 2 m/S 761 mmHg 61%
    Mehr zeigen